Location: ??
(35.5052°N, 139.7262°E)
Time: 19:47:19
(UTC+00:00)

Cosmos 1932 - Pass Details

Date: 25 October 2021
Orbit: 943 x 987 km, 65.0° (Epoch: 01 December)

Event Time Altitude Azimuth Distance (km) Brightness Sun altitude
Rises 09:21:20 0° 336° (NNW) 3,617 7.8 -18.4°
Reaches altitude 10° 09:24:01 10° 344° (NNW) 2,673 7.0 -19.0°
Maximum altitude 09:29:56 44° 55° (NE) 1,300 4.8 -20.2°
Enters shadow 09:31:30 37° 91° (E) 1,441 4.8 -20.5°
